owner,sensor,date,latitude,longitude,vertical_datum,wind_speed,wind_to_direction,wind_speed_of_gust,qcFlag 
COMPS,ioos:station:USF.COMPS:TAR:1,2013-12-03T16:00:00Z,28.1560,-82.7580,7.0,2.18,141.96,4.21,'1111122,1111122,1111122' 
COMPS,ioos:station:USF.COMPS:TAR:1,2013-12-03T16:06:00Z,28.1560,-82.7580,7.0,1.64,138.9,3.23,'1111122,1111122,1111122' 
COMPS,ioos:station:USF.COMPS:TAR:1,2013-12-03T16:12:00Z,28.1560,-82.7580,7.0,1.77,122.53,2.84,'1111122,1111122,1111122' 
COMPS,ioos:station:USF.COMPS:TAR:1,2013-12-03T16:18:00Z,28.1560,-82.7580,7.0,1.96,130.51,4.01,'1111122,1111122,1111122' 
COMPS,ioos:station:USF.COMPS:TAR:1,2013-12-03T16:24:00Z,28.1560,-82.7580,7.0,2.0,135.06,4.11,'1111122,1111122,1111122' 
COMPS,ioos:station:USF.COMPS:TAR:1,2013-12-03T16:30:00Z,28.1560,-82.7580,7.0,2.48,167.1,3.82,'1111122,1111122,1111122' 
COMPS,ioos:station:USF.COMPS:TAR:1,2013-12-03T16:36:00Z,28.1560,-82.7580,7.0,1.96,148.2,4.31,'1111122,1111122,1111122' 
COMPS,ioos:station:USF.COMPS:TAR:1,2013-12-03T16:42:00Z,28.1560,-82.7580,7.0,2.8,152.5,5.39,'1111122,1111122,1111122' 
COMPS,ioos:station:USF.COMPS:TAR:1,2013-12-03T16:48:00Z,28.1560,-82.7580,7.0,1.96,158.09,3.91,'1111122,1111122,1111122' 
COMPS,ioos:station:USF.COMPS:TAR:1,2013-12-03T16:54:00Z,28.1560,-82.7580,7.0,2.16,134.74,4.01,'1111122,1111122,1111122' 
COMPS,ioos:station:USF.COMPS:TAR:1,2013-12-03T17:00:00Z,28.1560,-82.7580,7.0,2.25,135.3,5.48,'1111122,1111122,1111122' 
COMPS,ioos:station:USF.COMPS:TAR:1,2013-12-03T17:06:00Z,28.1560,-82.7580,7.0,2.87,160.42,5.78,'1111122,1111122,1111122' 
COMPS,ioos:station:USF.COMPS:TAR:1,2013-12-03T17:12:00Z,28.1560,-82.7580,7.0,2.64,148.36,5.09,'1111122,1111122,1111122' 
COMPS,ioos:station:USF.COMPS:TAR:1,2013-12-03T17:18:00Z,28.1560,-82.7580,7.0,2.16,140.97,5.09,'1111122,1111122,1111122' 
COMPS,ioos:station:USF.COMPS:TAR:1,2013-12-03T17:24:00Z,28.1560,-82.7580,7.0,2.99,150.74,5.87,'1111122,1111122,1111122' 
COMPS,ioos:station:USF.COMPS:TAR:1,2013-12-03T17:30:00Z,28.1560,-82.7580,7.0,2.28,153.99,4.8,'1111122,1111122,1111122' 
COMPS,ioos:station:USF.COMPS:TAR:1,2013-12-03T17:36:00Z,28.1560,-82.7580,7.0,2.67,149.1,4.9,'1111122,1111122,1111122' 
COMPS,ioos:station:USF.COMPS:TAR:1,2013-12-03T17:42:00Z,28.1560,-82.7580,7.0,2.57,149.55,4.8,'1111122,1111122,1111122' 
COMPS,ioos:station:USF.COMPS:TAR:1,2013-12-03T17:48:00Z,28.1560,-82.7580,7.0,2.49,152.75,4.6,'1111122,1111122,1111122' 
COMPS,ioos:station:USF.COMPS:TAR:1,2013-12-03T17:54:00Z,28.1560,-82.7580,7.0,2.78,170.04,4.7,'1111122,1111122,1111122' 
COMPS,ioos:station:USF.COMPS:TAR:1,2013-12-03T18:00:00Z,28.1560,-82.7580,7.0,2.67,153.14,5.39,'1111122,1111122,1111122' 
COMPS,ioos:station:USF.COMPS:TAR:1,2013-12-03T18:06:00Z,28.1560,-82.7580,7.0,2.21,145.47,3.82,'1111122,1111122,1111122' 
COMPS,ioos:station:USF.COMPS:TAR:1,2013-12-03T18:12:00Z,28.1560,-82.7580,7.0,2.1,144.56,3.72,'1111122,1111122,1111122' 
COMPS,ioos:station:USF.COMPS:TAR:1,2013-12-03T18:18:00Z,28.1560,-82.7580,7.0,2.94,159.8,5.78,'1111122,1111122,1111122' 
COMPS,ioos:station:USF.COMPS:TAR:1,2013-12-03T18:24:00Z,28.1560,-82.7580,7.0,2.86,134.02,4.9,'1111122,1111122,1111122' 
COMPS,ioos:station:USF.COMPS:TAR:1,2013-12-03T18:30:00Z,28.1560,-82.7580,7.0,3.02,141.71,6.46,'1111122,1111122,1111122' 
COMPS,ioos:station:USF.COMPS:TAR:1,2013-12-03T18:36:00Z,28.1560,-82.7580,7.0,2.58,151.04,4.31,'1111122,1111122,1111122' 
COMPS,ioos:station:USF.COMPS:TAR:1,2013-12-03T18:42:00Z,28.1560,-82.7580,7.0,2.74,152.9,5.68,'1111122,1111122,1111122' 
COMPS,ioos:station:USF.COMPS:TAR:1,2013-12-03T18:48:00Z,28.1560,-82.7580,7.0,2.37,133.41,5.09,'1111122,1111122,1111122' 
COMPS,ioos:station:USF.COMPS:TAR:1,2013-12-03T18:54:00Z,28.1560,-82.7580,7.0,2.62,134.96,4.41,'1111122,1111122,1111122' 
COMPS,ioos:station:USF.COMPS:TAR:1,2013-12-03T19:00:00Z,28.1560,-82.7580,7.0,2.62,125.26,4.8,'1111122,1111122,1111122' 
COMPS,ioos:station:USF.COMPS:TAR:1,2013-12-03T19:06:00Z,28.1560,-82.7580,7.0,2.67,139.68,5.78,'1111122,1111122,1111122' 
COMPS,ioos:station:USF.COMPS:TAR:1,2013-12-03T19:12:00Z,28.1560,-82.7580,7.0,2.12,144.59,5.39,'1111122,1111122,1111122' 
COMPS,ioos:station:USF.COMPS:TAR:1,2013-12-03T19:18:00Z,28.1560,-82.7580,7.0,2.43,127.81,4.9,'1111122,1111122,1111122' 
COMPS,ioos:station:USF.COMPS:TAR:1,2013-12-03T19:24:00Z,28.1560,-82.7580,7.0,2.22,144.0,3.42,'1111122,1111122,1111122' 
COMPS,ioos:station:USF.COMPS:TAR:1,2013-12-03T19:30:00Z,28.1560,-82.7580,7.0,3.29,165.1,6.76,'1111122,1111122,1111122' 
COMPS,ioos:station:USF.COMPS:TAR:1,2013-12-03T19:36:00Z,28.1560,-82.7580,7.0,2.74,163.38,4.6,'1111122,1111122,1111122' 
COMPS,ioos:station:USF.COMPS:TAR:1,2013-12-03T19:42:00Z,28.1560,-82.7580,7.0,2.75,158.17,6.76,'1111122,1111122,1111122' 
COMPS,ioos:station:USF.COMPS:TAR:1,2013-12-03T19:48:00Z,28.1560,-82.7580,7.0,2.58,152.15,5.48,'1111122,1111122,1111122' 
COMPS,ioos:station:USF.COMPS:TAR:1,2013-12-03T19:54:00Z,28.1560,-82.7580,7.0,2.5,143.57,4.5,'1111122,1111122,1111122' 
COMPS,ioos:station:USF.COMPS:TAR:1,2013-12-03T20:00:00Z,28.1560,-82.7580,7.0,2.95,136.92,5.68,'1111122,1111122,1111122' 
COMPS,ioos:station:USF.COMPS:TAR:1,2013-12-03T20:06:00Z,28.1560,-82.7580,7.0,2.34,153.37,4.8,'1111122,1111122,1111122' 
COMPS,ioos:station:USF.COMPS:TAR:1,2013-12-03T20:12:00Z,28.1560,-82.7580,7.0,2.62,151.18,6.17,'1111122,1111122,1111122' 
COMPS,ioos:station:USF.COMPS:TAR:1,2013-12-03T20:18:00Z,28.1560,-82.7580,7.0,2.22,147.93,3.72,'1111122,1111122,1111122' 
COMPS,ioos:station:USF.COMPS:TAR:1,2013-12-03T20:24:00Z,28.1560,-82.7580,7.0,2.53,157.37,4.6,'1111122,1111122,1111122' 
COMPS,ioos:station:USF.COMPS:TAR:1,2013-12-03T20:30:00Z,28.1560,-82.7580,7.0,2.2,164.4,3.91,'1111122,1111122,1111122' 
COMPS,ioos:station:USF.COMPS:TAR:1,2013-12-03T20:36:00Z,28.1560,-82.7580,7.0,2.97,167.06,5.48,'1111122,1111122,1111122' 
COMPS,ioos:station:USF.COMPS:TAR:1,2013-12-03T20:42:00Z,28.1560,-82.7580,7.0,2.46,172.86,4.41,'1111122,1111122,1111122' 
COMPS,ioos:station:USF.COMPS:TAR:1,2013-12-03T20:48:00Z,28.1560,-82.7580,7.0,3.1,176.48,4.7,'1111122,1111122,1111122' 
COMPS,ioos:station:USF.COMPS:TAR:1,2013-12-03T20:54:00Z,28.1560,-82.7580,7.0,3.15,176.27,4.8,'1111122,1111122,1111122' 
COMPS,ioos:station:USF.COMPS:TAR:1,2013-12-03T21:00:00Z,28.1560,-82.7580,7.0,2.69,171.31,4.99,'1111122,1111122,1111122' 
COMPS,ioos:station:USF.COMPS:TAR:1,2013-12-03T21:06:00Z,28.1560,-82.7580,7.0,2.71,174.24,4.11,'1111122,1111122,1111122' 
COMPS,ioos:station:USF.COMPS:TAR:1,2013-12-03T21:12:00Z,28.1560,-82.7580,7.0,2.5,171.11,4.9,'1111122,1111122,1111122' 
COMPS,ioos:station:USF.COMPS:TAR:1,2013-12-03T21:18:00Z,28.1560,-82.7580,7.0,2.08,191.0,3.13,'1111122,1111122,1111122' 
COMPS,ioos:station:USF.COMPS:TAR:1,2013-12-03T21:24:00Z,28.1560,-82.7580,7.0,1.96,181.23,4.11,'1111122,1111122,1111122' 
COMPS,ioos:station:USF.COMPS:TAR:1,2013-12-03T21:30:00Z,28.1560,-82.7580,7.0,1.79,168.53,2.64,'1111122,1111122,1111122' 
COMPS,ioos:station:USF.COMPS:TAR:1,2013-12-03T21:36:00Z,28.1560,-82.7580,7.0,1.58,198.16,2.64,'1111122,1111122,1111122' 
COMPS,ioos:station:USF.COMPS:TAR:1,2013-12-03T21:42:00Z,28.1560,-82.7580,7.0,1.9,189.72,3.42,'1111122,1111122,1111122' 
COMPS,ioos:station:USF.COMPS:TAR:1,2013-12-03T21:48:00Z,28.1560,-82.7580,7.0,2.45,179.09,4.11,'1111122,1111122,1111122' 
COMPS,ioos:station:USF.COMPS:TAR:1,2013-12-03T21:54:00Z,28.1560,-82.7580,7.0,1.61,173.08,2.84,'1111122,1111122,1111122' 
COMPS,ioos:station:USF.COMPS:TAR:1,2013-12-03T22:00:00Z,28.1560,-82.7580,7.0,2.16,186.33,3.42,'1111122,1111122,1111122' 
COMPS,ioos:station:USF.COMPS:TAR:1,2013-12-03T22:06:00Z,28.1560,-82.7580,7.0,1.49,191.58,2.74,'1111122,1111122,1111122' 
COMPS,ioos:station:USF.COMPS:TAR:1,2013-12-03T22:12:00Z,28.1560,-82.7580,7.0,2.11,193.93,3.42,'1111122,1111122,1111122' 
COMPS,ioos:station:USF.COMPS:TAR:1,2013-12-03T22:18:00Z,28.1560,-82.7580,7.0,1.57,196.73,2.35,'1111122,1111122,1111122' 
COMPS,ioos:station:USF.COMPS:TAR:1,2013-12-03T22:24:00Z,28.1560,-82.7580,7.0,1.58,206.42,2.45,'1111122,1111122,1111122' 
COMPS,ioos:station:USF.COMPS:TAR:1,2013-12-03T22:30:00Z,28.1560,-82.7580,7.0,1.36,216.26,2.25,'1111122,1111122,1111122' 
COMPS,ioos:station:USF.COMPS:TAR:1,2013-12-03T22:36:00Z,28.1560,-82.7580,7.0,1.4,207.75,2.05,'1111122,1111122,1111122' 
COMPS,ioos:station:USF.COMPS:TAR:1,2013-12-03T22:42:00Z,28.1560,-82.7580,7.0,1.19,203.03,1.66,'1111122,1111122,1111122' 
COMPS,ioos:station:USF.COMPS:TAR:1,2013-12-03T22:48:00Z,28.1560,-82.7580,7.0,1.01,207.99,1.46,'1111122,1111122,1111122' 
COMPS,ioos:station:USF.COMPS:TAR:1,2013-12-03T22:54:00Z,28.1560,-82.7580,7.0,1.1,206.88,1.66,'1111122,1111122,1111122' 
COMPS,ioos:station:USF.COMPS:TAR:1,2013-12-03T23:00:00Z,28.1560,-82.7580,7.0,0.85,202.28,1.27,'1111122,1111122,1111122' 
COMPS,ioos:station:USF.COMPS:TAR:1,2013-12-03T23:06:00Z,28.1560,-82.7580,7.0,0.76,206.61,1.07,'1111122,1111122,1111122' 
COMPS,ioos:station:USF.COMPS:TAR:1,2013-12-03T23:12:00Z,28.1560,-82.7580,7.0,0.69,196.84,1.07,'1111122,1111122,1111122' 
COMPS,ioos:station:USF.COMPS:TAR:1,2013-12-03T23:18:00Z,28.1560,-82.7580,7.0,0.51,199.85,0.78,'1111122,1111122,1111122' 
COMPS,ioos:station:USF.COMPS:TAR:1,2013-12-03T23:24:00Z,28.1560,-82.7580,7.0,0.55,205.2,0.68,'1111122,1111122,1111122' 
COMPS,ioos:station:USF.COMPS:TAR:1,2013-12-03T23:30:00Z,28.1560,-82.7580,7.0,0.58,223.34,0.88,'1111122,1111122,1111122' 
COMPS,ioos:station:USF.COMPS:TAR:1,2013-12-03T23:36:00Z,28.1560,-82.7580,7.0,0.69,210.96,1.07,'1111122,1111122,1111122' 
COMPS,ioos:station:USF.COMPS:TAR:1,2013-12-03T23:42:00Z,28.1560,-82.7580,7.0,0.78,206.58,1.07,'1111122,1111122,1111122' 
COMPS,ioos:station:USF.COMPS:TAR:1,2013-12-03T23:48:00Z,28.1560,-82.7580,7.0,0.64,199.08,0.97,'1111122,1111122,1111122' 
COMPS,ioos:station:USF.COMPS:TAR:1,2013-12-03T23:54:00Z,28.1560,-82.7580,7.0,0.82,186.7,1.56,'1111122,1111122,1111122' 
COMPS,ioos:station:USF.COMPS:TAR:1,2013-12-04T00:00:00Z,28.1560,-82.7580,7.0,1.02,184.61,1.56,'1111122,1111122,1111122' 
COMPS,ioos:station:USF.COMPS:TAR:1,2013-12-04T00:06:00Z,28.1560,-82.7580,7.0,0.73,182.59,1.27,'1111122,1111122,1111122' 
COMPS,ioos:station:USF.COMPS:TAR:1,2013-12-04T00:12:00Z,28.1560,-82.7580,7.0,0.75,152.74,1.56,'1111122,1111122,1111122' 
COMPS,ioos:station:USF.COMPS:TAR:1,2013-12-04T00:18:00Z,28.1560,-82.7580,7.0,0.93,155.8,1.66,'1111122,1111122,1111122' 
COMPS,ioos:station:USF.COMPS:TAR:1,2013-12-04T00:24:00Z,28.1560,-82.7580,7.0,1.01,159.95,1.56,'1111122,1111122,1111122' 
COMPS,ioos:station:USF.COMPS:TAR:1,2013-12-04T00:30:00Z,28.1560,-82.7580,7.0,1.16,157.68,1.86,'1111122,1111122,1111122' 
COMPS,ioos:station:USF.COMPS:TAR:1,2013-12-04T00:36:00Z,28.1560,-82.7580,7.0,1.15,158.31,1.76,'1111122,1111122,1111122' 
COMPS,ioos:station:USF.COMPS:TAR:1,2013-12-04T00:42:00Z,28.1560,-82.7580,7.0,1.2,162.59,1.76,'1111122,1111122,1111122' 
COMPS,ioos:station:USF.COMPS:TAR:1,2013-12-04T00:48:00Z,28.1560,-82.7580,7.0,1.32,158.64,2.15,'1111122,1111122,1111122' 
COMPS,ioos:station:USF.COMPS:TAR:1,2013-12-04T00:54:00Z,28.1560,-82.7580,7.0,1.07,157.42,1.76,'1111122,1111122,1111122' 
COMPS,ioos:station:USF.COMPS:TAR:1,2013-12-04T01:00:00Z,28.1560,-82.7580,7.0,1.0,148.11,1.46,'1111122,1111122,1111122' 
COMPS,ioos:station:USF.COMPS:TAR:1,2013-12-04T01:06:00Z,28.1560,-82.7580,7.0,1.02,146.31,1.95,'1111122,1111122,1111122' 
COMPS,ioos:station:USF.COMPS:TAR:1,2013-12-04T01:12:00Z,28.1560,-82.7580,7.0,1.03,149.37,1.76,'1111122,1111122,1111122' 
COMPS,ioos:station:USF.COMPS:TAR:1,2013-12-04T01:18:00Z,28.1560,-82.7580,7.0,1.0,146.41,1.56,'1111122,1111122,1111122' 
COMPS,ioos:station:USF.COMPS:TAR:1,2013-12-04T01:24:00Z,28.1560,-82.7580,7.0,1.17,151.48,2.15,'1111122,1111122,1111122' 
COMPS,ioos:station:USF.COMPS:TAR:1,2013-12-04T01:30:00Z,28.1560,-82.7580,7.0,0.92,153.15,1.76,'1111122,1111122,1111122' 
COMPS,ioos:station:USF.COMPS:TAR:1,2013-12-04T01:36:00Z,28.1560,-82.7580,7.0,0.99,154.91,1.95,'1111122,1111122,1111122' 
COMPS,ioos:station:USF.COMPS:TAR:1,2013-12-04T01:42:00Z,28.1560,-82.7580,7.0,1.08,160.61,1.66,'1111122,1111122,1111122' 
COMPS,ioos:station:USF.COMPS:TAR:1,2013-12-04T01:48:00Z,28.1560,-82.7580,7.0,0.97,155.95,1.66,'1111122,1111122,1111122' 
COMPS,ioos:station:USF.COMPS:TAR:1,2013-12-04T01:54:00Z,28.1560,-82.7580,7.0,1.18,160.3,1.86,'1111122,1111122,1111122' 
COMPS,ioos:station:USF.COMPS:TAR:1,2013-12-04T02:00:00Z,28.1560,-82.7580,7.0,1.13,168.9,1.95,'1111122,1111122,1111122' 
COMPS,ioos:station:USF.COMPS:TAR:1,2013-12-04T02:06:00Z,28.1560,-82.7580,7.0,0.86,179.08,1.56,'1111122,1111122,1111122' 
COMPS,ioos:station:USF.COMPS:TAR:1,2013-12-04T02:12:00Z,28.1560,-82.7580,7.0,0.96,175.58,1.66,'1111122,1111122,1111122' 
COMPS,ioos:station:USF.COMPS:TAR:1,2013-12-04T02:18:00Z,28.1560,-82.7580,7.0,0.8,155.69,1.27,'1111122,1111122,1111122' 
COMPS,ioos:station:USF.COMPS:TAR:1,2013-12-04T02:24:00Z,28.1560,-82.7580,7.0,0.91,153.46,1.56,'1111122,1111122,1111122' 
COMPS,ioos:station:USF.COMPS:TAR:1,2013-12-04T02:30:00Z,28.1560,-82.7580,7.0,0.66,149.16,1.27,'1111122,1111122,1111122' 
COMPS,ioos:station:USF.COMPS:TAR:1,2013-12-04T02:36:00Z,28.1560,-82.7580,7.0,0.45,116.64,0.78,'1111122,1111122,1111122' 
COMPS,ioos:station:USF.COMPS:TAR:1,2013-12-04T02:42:00Z,28.1560,-82.7580,7.0,0.3,106.49,0.68,'1111122,1111122,1111122' 
COMPS,ioos:station:USF.COMPS:TAR:1,2013-12-04T02:48:00Z,28.1560,-82.7580,7.0,0.02,70.48,0.29,'1111122,1111122,1111122' 
COMPS,ioos:station:USF.COMPS:TAR:1,2013-12-04T02:54:00Z,28.1560,-82.7580,7.0,0.34,41.78,0.49,'1111122,1111122,1111122' 
COMPS,ioos:station:USF.COMPS:TAR:1,2013-12-04T03:00:00Z,28.1560,-82.7580,7.0,0.34,41.5,0.58,'1111122,1111122,1111122' 
COMPS,ioos:station:USF.COMPS:TAR:1,2013-12-04T03:06:00Z,28.1560,-82.7580,7.0,0.11,107.89,0.39,'1111122,1111122,1111122' 
COMPS,ioos:station:USF.COMPS:TAR:1,2013-12-04T03:12:00Z,28.1560,-82.7580,7.0,0.56,173.45,0.88,'1111122,1111122,1111122' 
COMPS,ioos:station:USF.COMPS:TAR:1,2013-12-04T03:18:00Z,28.1560,-82.7580,7.0,0.43,170.96,0.68,'1111122,1111122,1111122' 
COMPS,ioos:station:USF.COMPS:TAR:1,2013-12-04T03:24:00Z,28.1560,-82.7580,7.0,0.54,170.18,0.97,'1111122,1111122,1111122' 
COMPS,ioos:station:USF.COMPS:TAR:1,2013-12-04T03:30:00Z,28.1560,-82.7580,7.0,0.15,148.18,0.68,'1111122,1111122,1111122' 
COMPS,ioos:station:USF.COMPS:TAR:1,2013-12-04T03:36:00Z,28.1560,-82.7580,7.0,0.16,98.25,0.39,'1111122,1111122,1111122' 
COMPS,ioos:station:USF.COMPS:TAR:1,2013-12-04T03:42:00Z,28.1560,-82.7580,7.0,0.26,130.14,0.58,'1111122,1111122,1111122' 
COMPS,ioos:station:USF.COMPS:TAR:1,2013-12-04T03:48:00Z,28.1560,-82.7580,7.0,0.08,121.28,0.39,'1111122,1111122,1111122' 
COMPS,ioos:station:USF.COMPS:TAR:1,2013-12-04T03:54:00Z,28.1560,-82.7580,7.0,0.29,125.81,0.58,'1111122,1111122,1111122' 
COMPS,ioos:station:USF.COMPS:TAR:1,2013-12-04T04:00:00Z,28.1560,-82.7580,7.0,0.57,143.98,1.27,'1111122,1111122,1111122' 
COMPS,ioos:station:USF.COMPS:TAR:1,2013-12-04T04:06:00Z,28.1560,-82.7580,7.0,0.61,151.75,1.27,'1111122,1111122,1111122' 
COMPS,ioos:station:USF.COMPS:TAR:1,2013-12-04T04:12:00Z,28.1560,-82.7580,7.0,0.56,139.02,1.07,'1111122,1111122,1111122' 
COMPS,ioos:station:USF.COMPS:TAR:1,2013-12-04T04:18:00Z,28.1560,-82.7580,7.0,0.46,128.17,0.78,'1111122,1111122,1111122' 
COMPS,ioos:station:USF.COMPS:TAR:1,2013-12-04T04:24:00Z,28.1560,-82.7580,7.0,0.38,119.38,0.68,'1111122,1111122,1111122' 
COMPS,ioos:station:USF.COMPS:TAR:1,2013-12-04T04:30:00Z,28.1560,-82.7580,7.0,0.28,97.33,0.49,'1111122,1111122,1111122' 
COMPS,ioos:station:USF.COMPS:TAR:1,2013-12-04T04:36:00Z,28.1560,-82.7580,7.0,0.17,101.46,0.49,'1111122,1111122,1111122' 
COMPS,ioos:station:USF.COMPS:TAR:1,2013-12-04T04:42:00Z,28.1560,-82.7580,7.0,0.37,125.0,0.58,'1111122,1111122,1111122' 
COMPS,ioos:station:USF.COMPS:TAR:1,2013-12-04T04:48:00Z,28.1560,-82.7580,7.0,0.46,144.39,1.17,'1111122,1111122,1111122' 
COMPS,ioos:station:USF.COMPS:TAR:1,2013-12-04T04:54:00Z,28.1560,-82.7580,7.0,0.57,156.11,1.17,'1111122,1111122,1111122' 
COMPS,ioos:station:USF.COMPS:TAR:1,2013-12-04T05:00:00Z,28.1560,-82.7580,7.0,0.76,154.3,1.27,'1111122,1111122,1111122' 
COMPS,ioos:station:USF.COMPS:TAR:1,2013-12-04T05:06:00Z,28.1560,-82.7580,7.0,0.52,142.46,0.88,'1111122,1111122,1111122' 
COMPS,ioos:station:USF.COMPS:TAR:1,2013-12-04T05:12:00Z,28.1560,-82.7580,7.0,0.71,147.31,1.37,'1111122,1111122,1111122' 
COMPS,ioos:station:USF.COMPS:TAR:1,2013-12-04T05:18:00Z,28.1560,-82.7580,7.0,0.66,155.2,1.17,'1111122,1111122,1111122' 
COMPS,ioos:station:USF.COMPS:TAR:1,2013-12-04T05:24:00Z,28.1560,-82.7580,7.0,0.69,151.51,1.17,'1111122,1111122,1111122' 
COMPS,ioos:station:USF.COMPS:TAR:1,2013-12-04T05:30:00Z,28.1560,-82.7580,7.0,0.66,153.33,1.27,'1111122,1111122,1111122' 
COMPS,ioos:station:USF.COMPS:TAR:1,2013-12-04T05:36:00Z,28.1560,-82.7580,7.0,0.99,156.06,1.56,'1111122,1111122,1111122' 
COMPS,ioos:station:USF.COMPS:TAR:1,2013-12-04T05:42:00Z,28.1560,-82.7580,7.0,1.03,155.28,1.56,'1111122,1111122,1111122' 
COMPS,ioos:station:USF.COMPS:TAR:1,2013-12-04T05:48:00Z,28.1560,-82.7580,7.0,0.87,153.15,1.37,'1111122,1111122,1111122' 
COMPS,ioos:station:USF.COMPS:TAR:1,2013-12-04T05:54:00Z,28.1560,-82.7580,7.0,1.01,146.53,1.86,'1111122,1111122,1111122' 
COMPS,ioos:station:USF.COMPS:TAR:1,2013-12-04T06:00:00Z,28.1560,-82.7580,7.0,1.2,146.79,2.54,'1111122,1111122,1111122' 
COMPS,ioos:station:USF.COMPS:TAR:1,2013-12-04T06:06:00Z,28.1560,-82.7580,7.0,1.42,154.96,2.74,'1111122,1111122,1111122' 
COMPS,ioos:station:USF.COMPS:TAR:1,2013-12-04T06:12:00Z,28.1560,-82.7580,7.0,1.88,158.27,2.84,'1111122,1111122,1111122' 
COMPS,ioos:station:USF.COMPS:TAR:1,2013-12-04T06:18:00Z,28.1560,-82.7580,7.0,1.84,154.34,3.72,'1111122,1111122,1111122' 
COMPS,ioos:station:USF.COMPS:TAR:1,2013-12-04T06:24:00Z,28.1560,-82.7580,7.0,1.64,161.56,2.64,'1111122,1111122,1111122' 
COMPS,ioos:station:USF.COMPS:TAR:1,2013-12-04T06:30:00Z,28.1560,-82.7580,7.0,1.57,163.95,2.93,'1111122,1111122,1111122' 
COMPS,ioos:station:USF.COMPS:TAR:1,2013-12-04T06:36:00Z,28.1560,-82.7580,7.0,1.39,159.3,2.64,'1111122,1111122,1111122' 
COMPS,ioos:station:USF.COMPS:TAR:1,2013-12-04T06:42:00Z,28.1560,-82.7580,7.0,1.52,160.06,2.93,'1111122,1111122,1111122' 
COMPS,ioos:station:USF.COMPS:TAR:1,2013-12-04T06:48:00Z,28.1560,-82.7580,7.0,1.17,159.04,2.25,'1111122,1111122,1111122' 
COMPS,ioos:station:USF.COMPS:TAR:1,2013-12-04T06:54:00Z,28.1560,-82.7580,7.0,1.04,165.39,1.76,'1111122,1111122,1111122' 
COMPS,ioos:station:USF.COMPS:TAR:1,2013-12-04T07:00:00Z,28.1560,-82.7580,7.0,0.78,153.76,1.27,'1111122,1111122,1111122' 
COMPS,ioos:station:USF.COMPS:TAR:1,2013-12-04T07:06:00Z,28.1560,-82.7580,7.0,1.07,157.48,2.15,'1111122,1111122,1111122' 
COMPS,ioos:station:USF.COMPS:TAR:1,2013-12-04T07:12:00Z,28.1560,-82.7580,7.0,1.02,167.34,1.46,'1111122,1111122,1111122' 
COMPS,ioos:station:USF.COMPS:TAR:1,2013-12-04T07:18:00Z,28.1560,-82.7580,7.0,0.62,167.52,1.37,'1111122,1111122,1111122' 
COMPS,ioos:station:USF.COMPS:TAR:1,2013-12-04T07:24:00Z,28.1560,-82.7580,7.0,0.43,182.43,0.88,'1111122,1111122,1111122' 
COMPS,ioos:station:USF.COMPS:TAR:1,2013-12-04T07:30:00Z,28.1560,-82.7580,7.0,0.68,182.89,1.07,'1111122,1111122,1111122' 
COMPS,ioos:station:USF.COMPS:TAR:1,2013-12-04T07:36:00Z,28.1560,-82.7580,7.0,0.47,135.09,0.78,'1111122,1111122,1111122' 
COMPS,ioos:station:USF.COMPS:TAR:1,2013-12-04T07:42:00Z,28.1560,-82.7580,7.0,0.57,111.8,0.97,'1111122,1111122,1111122' 
COMPS,ioos:station:USF.COMPS:TAR:1,2013-12-04T07:48:00Z,28.1560,-82.7580,7.0,0.1,109.56,0.49,'1111122,1111122,1111122' 
COMPS,ioos:station:USF.COMPS:TAR:1,2013-12-04T07:54:00Z,28.1560,-82.7580,7.0,0.11,346.07,0.58,'1111122,1111122,1111122' 
COMPS,ioos:station:USF.COMPS:TAR:1,2013-12-04T08:00:00Z,28.1560,-82.7580,7.0,0.44,348.42,0.58,'1111122,1111122,1111122' 
COMPS,ioos:station:USF.COMPS:TAR:1,2013-12-04T08:06:00Z,28.1560,-82.7580,7.0,0.18,352.34,0.49,'1111122,1111122,1111122' 
COMPS,ioos:station:USF.COMPS:TAR:1,2013-12-04T08:12:00Z,28.1560,-82.7580,7.0,0.13,352.36,0.39,'1111122,1111122,1111122' 
COMPS,ioos:station:USF.COMPS:TAR:1,2013-12-04T08:18:00Z,28.1560,-82.7580,7.0,0.25,352.45,0.39,'1111122,1111122,1111122' 
COMPS,ioos:station:USF.COMPS:TAR:1,2013-12-04T08:24:00Z,28.1560,-82.7580,7.0,0.07,352.31,0.29,'1111122,1111122,1111122' 
COMPS,ioos:station:USF.COMPS:TAR:1,2013-12-04T08:36:00Z,28.1560,-82.7580,7.0,0.1,110.13,0.58,'1111122,1111122,1111122' 
COMPS,ioos:station:USF.COMPS:TAR:1,2013-12-04T08:42:00Z,28.1560,-82.7580,7.0,0.4,124.67,0.78,'1111122,1111122,1111122' 
COMPS,ioos:station:USF.COMPS:TAR:1,2013-12-04T08:48:00Z,28.1560,-82.7580,7.0,0.66,116.04,1.17,'1111122,1111122,1111122' 
COMPS,ioos:station:USF.COMPS:TAR:1,2013-12-04T08:54:00Z,28.1560,-82.7580,7.0,0.31,113.99,0.68,'1111122,1111122,1111122' 
COMPS,ioos:station:USF.COMPS:TAR:1,2013-12-04T09:00:00Z,28.1560,-82.7580,7.0,0.15,21.95,0.58,'1111122,1111122,1111122' 
COMPS,ioos:station:USF.COMPS:TAR:1,2013-12-04T09:06:00Z,28.1560,-82.7580,7.0,0.13,140.76,0.58,'1111122,1111122,1111122' 
COMPS,ioos:station:USF.COMPS:TAR:1,2013-12-04T09:12:00Z,28.1560,-82.7580,7.0,0.71,159.08,1.46,'1111122,1111122,1111122' 
COMPS,ioos:station:USF.COMPS:TAR:1,2013-12-04T09:18:00Z,28.1560,-82.7580,7.0,0.72,164.31,1.17,'1111122,1111122,1111122' 
COMPS,ioos:station:USF.COMPS:TAR:1,2013-12-04T09:24:00Z,28.1560,-82.7580,7.0,1.02,162.49,1.86,'1111122,1111122,1111122' 
COMPS,ioos:station:USF.COMPS:TAR:1,2013-12-04T09:30:00Z,28.1560,-82.7580,7.0,1.05,152.57,2.05,'1111122,1111122,1111122' 
COMPS,ioos:station:USF.COMPS:TAR:1,2013-12-04T09:36:00Z,28.1560,-82.7580,7.0,0.94,147.98,1.76,'1111122,1111122,1111122' 
COMPS,ioos:station:USF.COMPS:TAR:1,2013-12-04T09:42:00Z,28.1560,-82.7580,7.0,0.73,150.11,1.46,'1111122,1111122,1111122' 
COMPS,ioos:station:USF.COMPS:TAR:1,2013-12-04T09:48:00Z,28.1560,-82.7580,7.0,0.55,167.79,0.97,'1111122,1111122,1111122' 
COMPS,ioos:station:USF.COMPS:TAR:1,2013-12-04T09:54:00Z,28.1560,-82.7580,7.0,1.15,166.21,2.05,'1111122,1111122,1111122' 
COMPS,ioos:station:USF.COMPS:TAR:1,2013-12-04T10:00:00Z,28.1560,-82.7580,7.0,1.57,162.87,2.25,'1111122,1111122,1111122' 
COMPS,ioos:station:USF.COMPS:TAR:1,2013-12-04T10:06:00Z,28.1560,-82.7580,7.0,1.25,169.9,2.15,'1111122,1111122,1111122' 
COMPS,ioos:station:USF.COMPS:TAR:1,2013-12-04T10:12:00Z,28.1560,-82.7580,7.0,0.92,168.58,1.66,'1111122,1111122,1111122' 
COMPS,ioos:station:USF.COMPS:TAR:1,2013-12-04T10:18:00Z,28.1560,-82.7580,7.0,0.56,126.8,1.07,'1111122,1111122,1111122' 
COMPS,ioos:station:USF.COMPS:TAR:1,2013-12-04T10:24:00Z,28.1560,-82.7580,7.0,0.44,113.27,0.68,'1111122,1111122,1111122' 
COMPS,ioos:station:USF.COMPS:TAR:1,2013-12-04T10:30:00Z,28.1560,-82.7580,7.0,0.28,106.43,0.78,'1111122,1111122,1111122' 
COMPS,ioos:station:USF.COMPS:TAR:1,2013-12-04T10:36:00Z,28.1560,-82.7580,7.0,0.9,162.35,2.05,'1111122,1111122,1111122' 
COMPS,ioos:station:USF.COMPS:TAR:1,2013-12-04T10:42:00Z,28.1560,-82.7580,7.0,1.27,147.12,2.15,'1111122,1111122,1111122' 
COMPS,ioos:station:USF.COMPS:TAR:1,2013-12-04T10:48:00Z,28.1560,-82.7580,7.0,0.51,150.96,1.56,'1111122,1111122,1111122' 
COMPS,ioos:station:USF.COMPS:TAR:1,2013-12-04T10:54:00Z,28.1560,-82.7580,7.0,0.8,320.03,1.37,'1111122,1111122,1111122' 
COMPS,ioos:station:USF.COMPS:TAR:1,2013-12-04T11:00:00Z,28.1560,-82.7580,7.0,0.61,90.16,1.07,'1111122,1111122,1111122' 
COMPS,ioos:station:USF.COMPS:TAR:1,2013-12-04T11:06:00Z,28.1560,-82.7580,7.0,1.03,154.32,1.66,'1111122,1111122,1111122' 
COMPS,ioos:station:USF.COMPS:TAR:1,2013-12-04T11:12:00Z,28.1560,-82.7580,7.0,0.83,177.44,1.56,'1111122,1111122,1111122' 
COMPS,ioos:station:USF.COMPS:TAR:1,2013-12-04T11:18:00Z,28.1560,-82.7580,7.0,0.18,131.28,0.78,'1111122,1111122,1111122' 
COMPS,ioos:station:USF.COMPS:TAR:1,2013-12-04T11:24:00Z,28.1560,-82.7580,7.0,0.34,19.27,0.88,'1111122,1111122,1111122' 
COMPS,ioos:station:USF.COMPS:TAR:1,2013-12-04T11:30:00Z,28.1560,-82.7580,7.0,0.81,34.58,1.27,'1111122,1111122,1111122' 
COMPS,ioos:station:USF.COMPS:TAR:1,2013-12-04T11:36:00Z,28.1560,-82.7580,7.0,0.54,96.58,1.07,'1111122,1111122,1111122' 
COMPS,ioos:station:USF.COMPS:TAR:1,2013-12-04T11:42:00Z,28.1560,-82.7580,7.0,0.46,115.49,1.17,'1111122,1111122,1111122' 
COMPS,ioos:station:USF.COMPS:TAR:1,2013-12-04T11:48:00Z,28.1560,-82.7580,7.0,0.3,145.94,0.58,'1111122,1111122,1111122' 